Time,TemperatureF,DewpointF,PressureIn,WindDirection,WindDirectionDegrees,WindSpeedMPH,WindSpeedGustMPH,Humidity,HourlyPrecipIn,Conditions,Clouds,dailyrainin,SoftwareType,DateUTC
2013-10-11 00:01:00,57.9,53.7,30.13,NNE,22,0.0,0.0,86,0.00,,,0.00,WUHU21623XXSP,2013-10-11 04:01:00,
2013-10-11 00:02:00,57.9,53.7,30.12,WNW,292,0.0,0.0,86,0.00,,,0.00,WUHU21623XXSP,2013-10-11 04:02:00,
2013-10-11 00:07:00,57.9,53.7,30.12,WNW,292,0.0,0.0,86,0.00,,,0.00,WUHU21623XXSP,2013-10-11 04:07:00,
2013-10-11 00:12:00,57.7,53.6,30.12,South,180,0.0,0.0,86,0.00,,,0.00,WUHU21623XXSP,2013-10-11 04:12:00,
2013-10-11 00:17:00,57.7,53.6,30.12,NE,45,0.0,0.0,86,0.00,,,0.00,WUHU21623XXSP,2013-10-11 04:17:00,
2013-10-11 00:22:00,57.7,53.6,30.12,SW,225,0.0,0.0,86,0.00,,,0.00,WUHU21623XXSP,2013-10-11 04:22:00,
2013-10-11 00:27:00,57.7,53.6,30.12,NNW,337,0.0,0.0,86,0.00,,,0.00,WUHU21623XXSP,2013-10-11 04:27:00,
2013-10-11 00:32:00,57.7,53.6,30.12,West,270,0.0,0.0,86,0.00,,,0.00,WUHU21623XXSP,2013-10-11 04:32:00,
2013-10-11 00:37:00,57.7,53.6,30.12,SW,225,0.0,0.0,86,0.00,,,0.00,WUHU21623XXSP,2013-10-11 04:37:00,
2013-10-11 00:42:00,57.7,53.6,30.12,WNW,292,0.0,0.0,86,0.00,,,0.00,WUHU21623XXSP,2013-10-11 04:42:00,
2013-10-11 00:47:00,57.7,53.6,30.11,West,270,0.0,0.0,86,0.00,,,0.00,WUHU21623XXSP,2013-10-11 04:47:00,
2013-10-11 00:52:00,57.7,53.6,30.11,WNW,292,0.0,0.0,86,0.00,,,0.00,WUHU21623XXSP,2013-10-11 04:52:00,
2013-10-11 00:57:00,57.7,53.6,30.11,SSW,202,0.0,0.0,86,0.00,,,0.00,WUHU21623XXSP,2013-10-11 04:57:00,
2013-10-11 01:02:00,57.7,53.6,30.11,NNE,22,0.0,0.0,86,0.00,,,0.00,WUHU21623XXSP,2013-10-11 05:02:00,
2013-10-11 01:07:00,57.7,53.6,30.11,WNW,292,0.0,0.0,86,0.00,,,0.00,WUHU21623XXSP,2013-10-11 05:07:00,
2013-10-11 01:12:00,57.7,53.6,30.11,WNW,292,0.0,0.0,86,0.00,,,0.00,WUHU21623XXSP,2013-10-11 05:12:00,
2013-10-11 01:17:00,57.7,53.6,30.11,NNW,337,0.0,0.0,86,0.00,,,0.00,WUHU21623XXSP,2013-10-11 05:17:00,
2013-10-11 01:22:00,57.7,53.6,30.11,NNE,22,0.0,0.0,86,0.00,,,0.00,WUHU21623XXSP,2013-10-11 05:22:00,
2013-10-11 01:27:00,57.7,53.6,30.10,WNW,292,0.0,0.0,86,0.00,,,0.00,WUHU21623XXSP,2013-10-11 05:27:00,
2013-10-11 01:32:00,57.7,53.6,30.10,South,180,0.0,1.6,86,0.00,,,0.00,WUHU21623XXSP,2013-10-11 05:32:00,
2013-10-11 01:37:00,57.7,53.6,30.10,South,180,0.0,1.6,86,0.00,,,0.00,WUHU21623XXSP,2013-10-11 05:37:00,
2013-10-11 01:42:00,57.7,53.6,30.10,NE,45,0.0,0.0,87,0.00,,,0.00,WUHU21623XXSP,2013-10-11 05:42:00,
2013-10-11 01:46:00,57.7,53.6,30.10,ESE,112,0.0,0.0,86,0.00,,,0.00,WUHU21623XXSP,2013-10-11 05:46:00,
2013-10-11 01:51:00,57.7,53.9,30.10,East,90,0.0,0.0,87,0.00,,,0.00,WUHU21623XXSP,2013-10-11 05:51:00,
2013-10-11 01:56:00,57.6,53.7,30.10,South,180,0.0,0.0,87,0.00,,,0.00,WUHU21623XXSP,2013-10-11 05:56:00,
2013-10-11 02:01:00,57.6,53.7,30.10,WSW,247,0.0,0.0,87,0.00,,,0.00,WUHU21623XXSP,2013-10-11 06:01:00,
2013-10-11 02:06:00,57.6,53.7,30.10,WSW,247,0.0,0.0,87,0.00,,,0.00,WUHU21623XXSP,2013-10-11 06:06:00,
2013-10-11 02:11:00,57.4,53.5,30.10,SSW,202,0.0,0.0,87,0.00,,,0.00,WUHU21623XXSP,2013-10-11 06:11:00,
2013-10-11 02:16:00,57.4,53.5,30.10,NW,315,0.0,0.0,87,0.00,,,0.00,WUHU21623XXSP,2013-10-11 06:16:00,
2013-10-11 02:21:00,57.6,53.7,30.10,East,90,1.6,1.6,87,0.00,,,0.00,WUHU21623XXSP,2013-10-11 06:21:00,
2013-10-11 02:26:00,57.6,53.7,30.10,South,180,0.0,1.6,87,0.00,,,0.00,WUHU21623XXSP,2013-10-11 06:26:00,
2013-10-11 02:31:00,57.6,53.7,30.10,SE,135,0.0,1.6,87,0.00,,,0.00,WUHU21623XXSP,2013-10-11 06:31:00,
2013-10-11 02:36:00,57.6,53.7,30.10,North,0,0.0,0.0,87,0.00,,,0.00,WUHU21623XXSP,2013-10-11 06:36:00,
2013-10-11 02:41:00,57.6,53.7,30.10,SSE,157,0.0,0.0,87,0.00,,,0.00,WUHU21623XXSP,2013-10-11 06:41:00,
2013-10-11 02:46:00,57.6,53.7,30.10,SSE,157,0.0,0.0,87,0.00,,,0.00,WUHU21623XXSP,2013-10-11 06:46:00,
2013-10-11 02:51:00,57.6,53.7,30.10,WSW,247,0.0,0.0,87,0.00,,,0.00,WUHU21623XXSP,2013-10-11 06:51:00,
2013-10-11 02:56:00,57.7,53.9,30.09,NNW,337,0.0,0.0,87,0.00,,,0.00,WUHU21623XXSP,2013-10-11 06:56:00,
2013-10-11 03:01:00,57.7,53.9,30.09,SSE,157,0.0,0.0,87,0.00,,,0.00,WUHU21623XXSP,2013-10-11 07:01:00,
2013-10-11 03:06:00,57.7,53.9,30.09,NNW,337,0.0,0.0,87,0.00,,,0.00,WUHU21623XXSP,2013-10-11 07:06:00,
2013-10-11 03:11:00,57.7,53.9,30.09,NNW,337,0.0,0.0,88,0.00,,,0.00,WUHU21623XXSP,2013-10-11 07:11:00,
2013-10-11 03:17:00,57.7,53.9,30.09,NNW,337,0.0,4.7,87,0.00,,,0.00,WUHU21623XXSP,2013-10-11 07:17:00,
2013-10-11 03:22:00,57.7,53.9,30.09,NNW,337,0.0,4.7,87,0.00,,,0.00,WUHU21623XXSP,2013-10-11 07:22:00,
2013-10-11 03:27:00,57.7,53.9,30.09,SE,135,0.0,0.0,87,0.00,,,0.00,WUHU21623XXSP,2013-10-11 07:27:00,
2013-10-11 03:32:00,57.7,53.9,30.08,North,0,0.0,1.8,87,0.00,,,0.00,WUHU21623XXSP,2013-10-11 07:32:00,
2013-10-11 03:37:00,57.7,53.9,30.08,NE,45,0.0,1.8,87,0.00,,,0.00,WUHU21623XXSP,2013-10-11 07:37:00,
2013-10-11 03:42:00,57.7,53.9,30.07,NW,315,0.0,0.0,87,0.00,,,0.00,WUHU21623XXSP,2013-10-11 07:42:00,
2013-10-11 03:47:00,57.7,53.9,30.08,SSE,157,0.0,0.0,87,0.00,,,0.00,WUHU21623XXSP,2013-10-11 07:47:00,
2013-10-11 03:52:00,57.7,53.9,30.08,SSE,157,0.0,0.0,87,0.00,,,0.00,WUHU21623XXSP,2013-10-11 07:52:00,
2013-10-11 03:57:00,57.7,53.9,30.07,SSE,157,0.0,0.0,87,0.00,,,0.00,WUHU21623XXSP,2013-10-11 07:57:00,
2013-10-11 04:02:00,57.7,53.9,30.07,NE,45,0.0,0.0,87,0.00,,,0.00,WUHU21623XXSP,2013-10-11 08:02:00,
2013-10-11 04:07:00,57.7,54.2,30.07,NE,45,0.0,0.0,87,0.00,,,0.00,WUHU21623XXSP,2013-10-11 08:07:00,
2013-10-11 04:12:00,57.7,54.2,30.07,ENE,67,0.0,0.0,88,0.00,,,0.00,WUHU21623XXSP,2013-10-11 08:12:00,
2013-10-11 04:17:00,57.7,54.2,30.07,East,90,0.0,0.0,88,0.00,,,0.00,WUHU21623XXSP,2013-10-11 08:17:00,
2013-10-11 04:22:00,57.6,54.0,30.07,SSE,157,1.6,1.6,88,0.00,,,0.00,WUHU21623XXSP,2013-10-11 08:22:00,
2013-10-11 04:27:00,57.6,54.0,30.07,SSW,202,0.0,1.6,88,0.00,,,0.00,WUHU21623XXSP,2013-10-11 08:27:00,
2013-10-11 04:32:00,57.7,54.2,30.07,NNW,337,0.0,1.6,88,0.00,,,0.00,WUHU21623XXSP,2013-10-11 08:32:00,
2013-10-11 04:37:00,57.6,54.0,30.07,East,90,0.0,0.0,88,0.00,,,0.00,WUHU21623XXSP,2013-10-11 08:37:00,
2013-10-11 04:42:00,57.7,54.2,30.07,ESE,112,0.0,0.0,88,0.00,,,0.00,WUHU21623XXSP,2013-10-11 08:42:00,
2013-10-11 04:47:00,57.7,54.2,30.07,NNE,22,0.0,0.0,88,0.00,,,0.00,WUHU21623XXSP,2013-10-11 08:47:00,
2013-10-11 04:52:00,57.7,54.2,30.08,SW,225,0.0,0.0,88,0.00,,,0.00,WUHU21623XXSP,2013-10-11 08:52:00,
2013-10-11 04:57:00,57.7,54.2,30.08,ENE,67,0.0,0.0,88,0.00,,,0.00,WUHU21623XXSP,2013-10-11 08:57:00,
2013-10-11 05:02:00,57.7,54.2,30.07,WNW,292,0.0,0.0,88,0.00,,,0.00,WUHU21623XXSP,2013-10-11 09:02:00,
2013-10-11 05:07:00,57.7,54.2,30.07,SE,135,0.0,0.0,88,0.00,,,0.00,WUHU21623XXSP,2013-10-11 09:07:00,
2013-10-11 05:12:00,57.7,54.2,30.07,WSW,247,1.1,1.1,88,0.00,,,0.00,WUHU21623XXSP,2013-10-11 09:12:00,
2013-10-11 05:17:00,57.7,54.2,30.07,ESE,112,0.0,1.1,88,0.00,,,0.00,WUHU21623XXSP,2013-10-11 09:17:00,
2013-10-11 05:22:00,57.7,54.2,30.07,WNW,292,0.0,1.6,88,0.00,,,0.00,WUHU21623XXSP,2013-10-11 09:22:00,
2013-10-11 05:27:00,57.6,54.2,30.07,SE,135,0.0,1.6,88,0.00,,,0.00,WUHU21623XXSP,2013-10-11 09:27:00,
2013-10-11 05:32:00,57.6,54.0,30.08,North,0,0.0,0.0,88,0.00,,,0.00,WUHU21623XXSP,2013-10-11 09:32:00,
2013-10-11 05:37:00,57.6,54.0,30.08,SE,135,0.0,0.0,88,0.00,,,0.00,WUHU21623XXSP,2013-10-11 09:37:00,
2013-10-11 05:42:00,57.6,54.0,30.08,East,90,0.0,0.0,88,0.00,,,0.00,WUHU21623XXSP,2013-10-11 09:42:00,
2013-10-11 05:47:00,57.6,54.0,30.08,NNE,22,0.0,0.0,88,0.00,,,0.00,WUHU21623XXSP,2013-10-11 09:47:00,
2013-10-11 05:52:00,57.6,54.0,30.08,West,270,0.0,0.0,88,0.00,,,0.00,WUHU21623XXSP,2013-10-11 09:52:00,
2013-10-11 05:57:00,57.6,54.0,30.08,SE,135,0.0,0.0,88,0.00,,,0.00,WUHU21623XXSP,2013-10-11 09:57:00,
2013-10-11 06:02:00,57.6,54.0,30.08,South,180,0.0,0.0,88,0.00,,,0.00,WUHU21623XXSP,2013-10-11 10:02:00,
2013-10-11 06:07:00,57.6,53.7,30.08,South,180,0.0,0.0,87,0.00,,,0.00,WUHU21623XXSP,2013-10-11 10:07:00,
2013-10-11 06:12:00,57.6,54.0,30.08,SE,135,0.0,0.0,88,0.00,,,0.00,WUHU21623XXSP,2013-10-11 10:12:00,
2013-10-11 06:17:00,57.7,53.9,30.08,ESE,112,0.0,0.0,87,0.00,,,0.00,WUHU21623XXSP,2013-10-11 10:17:00,
2013-10-11 06:22:00,57.7,53.9,30.08,North,0,0.0,0.0,87,0.00,,,0.00,WUHU21623XXSP,2013-10-11 10:22:00,
2013-10-11 06:27:00,57.7,53.9,30.08,SSW,202,0.0,0.0,87,0.00,,,0.00,WUHU21623XXSP,2013-10-11 10:27:00,
2013-10-11 06:32:00,57.7,54.2,30.08,WNW,292,0.0,0.0,88,0.00,,,0.00,WUHU21623XXSP,2013-10-11 10:32:00,
2013-10-11 06:37:00,57.7,53.9,30.08,SSW,202,0.0,0.0,87,0.00,,,0.00,WUHU21623XXSP,2013-10-11 10:37:00,
2013-10-11 06:42:00,57.7,53.9,30.08,NNE,22,0.0,0.0,87,0.00,,,0.00,WUHU21623XXSP,2013-10-11 10:42:00,
2013-10-11 06:47:00,57.7,53.9,30.08,SE,135,0.0,0.0,87,0.00,,,0.00,WUHU21623XXSP,2013-10-11 10:47:00,
2013-10-11 06:52:00,57.7,53.9,30.08,WNW,292,0.0,0.0,87,0.00,,,0.00,WUHU21623XXSP,2013-10-11 10:52:00,
2013-10-11 06:57:00,57.7,54.2,30.08,SSE,157,0.0,0.0,88,0.00,,,0.00,WUHU21623XXSP,2013-10-11 10:57:00,
2013-10-11 07:02:00,57.7,54.2,30.08,NW,315,0.0,0.0,88,0.00,,,0.00,WUHU21623XXSP,2013-10-11 11:02:00,
2013-10-11 07:07:00,57.7,53.9,30.08,South,180,0.0,0.0,87,0.00,,,0.00,WUHU21623XXSP,2013-10-11 11:07:00,
2013-10-11 07:12:00,57.7,53.9,30.08,WSW,247,0.0,0.0,87,0.00,,,0.00,WUHU21623XXSP,2013-10-11 11:12:00,
2013-10-11 07:17:00,57.7,54.2,30.08,NNW,337,0.0,0.0,88,0.00,,,0.00,WUHU21623XXSP,2013-10-11 11:17:00,
2013-10-11 07:22:00,57.7,53.9,30.08,NW,315,0.0,0.0,87,0.00,,,0.00,WUHU21623XXSP,2013-10-11 11:22:00,
2013-10-11 07:27:00,57.9,54.1,30.08,ESE,112,0.0,0.0,87,0.00,,,0.00,WUHU21623XXSP,2013-10-11 11:27:00,
2013-10-11 07:32:00,57.9,54.1,30.08,East,90,0.0,0.0,87,0.00,,,0.00,WUHU21623XXSP,2013-10-11 11:32:00,
2013-10-11 07:37:00,57.9,54.1,30.08,SSE,157,0.0,0.0,87,0.00,,,0.00,WUHU21623XXSP,2013-10-11 11:37:00,
2013-10-11 07:42:00,57.9,54.1,30.08,WNW,292,1.6,1.6,87,0.00,,,0.00,WUHU21623XXSP,2013-10-11 11:42:00,
2013-10-11 07:47:00,58.3,54.4,30.08,South,180,0.0,2.5,87,0.00,,,0.00,WUHU21623XXSP,2013-10-11 11:47:00,
2013-10-11 07:52:00,58.3,54.4,30.08,WNW,292,1.8,2.5,87,0.00,,,0.00,WUHU21623XXSP,2013-10-11 11:52:00,
2013-10-11 07:57:00,58.5,54.6,30.08,ENE,67,0.0,4.7,87,0.00,,,0.00,WUHU21623XXSP,2013-10-11 11:57:00,
2013-10-11 08:02:00,58.6,54.8,30.08,NNW,337,0.0,4.7,87,0.00,,,0.00,WUHU21623XXSP,2013-10-11 12:02:00,
2013-10-11 08:07:00,58.8,55.0,30.08,SSE,157,0.0,0.0,87,0.00,,,0.00,WUHU21623XXSP,2013-10-11 12:07:00,
2013-10-11 08:12:00,59.0,55.1,30.09,North,0,0.0,0.0,87,0.00,,,0.00,WUHU21623XXSP,2013-10-11 12:12:00,
2013-10-11 08:17:00,59.4,55.5,30.09,West,270,2.0,2.0,87,0.00,,,0.00,WUHU21623XXSP,2013-10-11 12:17:00,
2013-10-11 08:22:00,59.5,55.4,30.09,ENE,67,0.0,2.0,86,0.00,,,0.00,WUHU21623XXSP,2013-10-11 12:22:00,
2013-10-11 08:27:00,59.7,55.4,30.09,West,270,0.0,2.0,86,0.00,,,0.00,WUHU21623XXSP,2013-10-11 12:27:00,
2013-10-11 08:32:00,59.9,55.7,30.09,ESE,112,2.0,2.0,86,0.00,,,0.00,WUHU21623XXSP,2013-10-11 12:32:00,
2013-10-11 08:37:00,60.1,55.9,30.09,ESE,112,0.0,2.0,86,0.00,,,0.00,WUHU21623XXSP,2013-10-11 12:37:00,
2013-10-11 08:42:00,60.3,55.4,30.09,NE,45,0.0,0.0,84,0.00,,,0.00,WUHU21623XXSP,2013-10-11 12:42:00,
2013-10-11 08:47:00,60.4,55.6,30.09,WNW,292,0.0,0.0,84,0.00,,,0.00,WUHU21623XXSP,2013-10-11 12:47:00,
2013-10-11 08:52:00,60.6,55.8,30.09,SE,135,0.0,0.0,84,0.00,,,0.00,WUHU21623XXSP,2013-10-11 12:52:00,
2013-10-11 08:57:00,61.0,56.1,30.09,SW,225,0.0,0.7,84,0.00,,,0.00,WUHU21623XXSP,2013-10-11 12:57:00,
2013-10-11 09:02:00,61.3,56.1,30.09,SSE,157,2.9,2.9,83,0.00,,,0.00,WUHU21623XXSP,2013-10-11 13:02:00,
2013-10-11 09:07:00,61.5,56.0,30.09,WSW,247,0.0,2.9,82,0.00,,,0.00,WUHU21623XXSP,2013-10-11 13:07:00,
2013-10-11 09:12:00,62.2,56.3,30.09,NNW,337,3.1,3.1,82,0.00,,,0.00,WUHU21623XXSP,2013-10-11 13:12:00,
2013-10-11 09:17:00,62.4,56.8,30.09,SE,135,1.8,3.1,82,0.00,,,0.00,WUHU21623XXSP,2013-10-11 13:17:00,
2013-10-11 09:22:00,62.4,56.5,30.10,SSE,157,0.0,1.8,81,0.00,,,0.00,WUHU21623XXSP,2013-10-11 13:22:00,
2013-10-11 09:27:00,62.4,56.1,30.10,WNW,292,1.6,1.6,80,0.00,,,0.00,WUHU21623XXSP,2013-10-11 13:27:00,
2013-10-11 09:32:00,62.8,56.5,30.10,NNE,22,2.2,2.2,80,0.00,,,0.00,WUHU21623XXSP,2013-10-11 13:32:00,
2013-10-11 09:37:00,63.1,56.8,30.09,West,270,0.0,2.2,80,0.00,,,0.00,WUHU21623XXSP,2013-10-11 13:37:00,
2013-10-11 09:42:00,63.1,56.5,30.10,ENE,67,0.0,0.0,79,0.00,,,0.00,WUHU21623XXSP,2013-10-11 13:42:00,
2013-10-11 09:47:00,63.1,56.5,30.10,West,270,3.6,3.6,79,0.00,,,0.00,WUHU21623XXSP,2013-10-11 13:47:00,
2013-10-11 09:52:00,63.1,56.5,30.09,NE,45,0.0,3.6,79,0.00,,,0.00,WUHU21623XXSP,2013-10-11 13:52:00,
2013-10-11 09:57:00,63.3,56.7,30.10,NE,45,1.6,1.6,79,0.00,,,0.00,WUHU21623XXSP,2013-10-11 13:57:00,
2013-10-11 10:02:00,63.1,56.5,30.10,SE,135,0.0,1.6,79,0.00,,,0.00,WUHU21623XXSP,2013-10-11 14:02:00,
2013-10-11 10:07:00,63.1,56.5,30.10,ENE,67,0.0,0.0,79,0.00,,,0.00,WUHU21623XXSP,2013-10-11 14:07:00,
2013-10-11 10:12:00,63.1,56.5,30.10,WNW,292,0.0,0.0,79,0.00,,,0.00,WUHU21623XXSP,2013-10-11 14:12:00,
2013-10-11 10:17:00,63.5,56.8,30.10,ESE,112,0.0,0.0,79,0.00,,,0.00,WUHU21623XXSP,2013-10-11 14:17:00,
2013-10-11 10:22:00,63.5,56.5,30.10,North,0,0.0,0.0,78,0.00,,,0.00,WUHU21623XXSP,2013-10-11 14:22:00,
2013-10-11 10:27:00,63.7,56.7,30.09,SSE,157,0.0,1.6,78,0.00,,,0.00,WUHU21623XXSP,2013-10-11 14:27:00,
2013-10-11 10:32:00,64.0,57.0,30.09,NNE,22,0.9,1.6,78,0.00,,,0.00,WUHU21623XXSP,2013-10-11 14:32:00,
2013-10-11 10:37:00,64.6,57.5,30.10,East,90,0.0,0.9,78,0.00,,,0.00,WUHU21623XXSP,2013-10-11 14:37:00,
2013-10-11 10:42:00,65.7,58.2,30.09,ESE,112,0.0,0.9,77,0.00,,,0.00,WUHU21623XXSP,2013-10-11 14:42:00,
2013-10-11 10:47:00,67.6,58.9,30.09,ESE,112,0.0,0.0,76,0.00,,,0.00,WUHU21623XXSP,2013-10-11 14:47:00,
2013-10-11 10:52:00,70.3,61.6,30.09,South,180,0.0,0.0,74,0.00,,,0.00,WUHU21623XXSP,2013-10-11 14:52:00,
2013-10-11 10:57:00,73.8,62.6,30.09,SE,135,3.4,4.7,68,0.00,,,0.00,WUHU21623XXSP,2013-10-11 14:57:00,
2013-10-11 11:02:00,74.1,61.6,30.09,West,270,0.0,4.7,65,0.00,,,0.00,WUHU21623XXSP,2013-10-11 15:02:00,
2013-10-11 11:07:00,74.3,61.3,30.10,SE,135,0.0,1.6,64,0.00,,,0.00,WUHU21623XXSP,2013-10-11 15:07:00,
2013-10-11 11:12:00,74.5,61.5,30.10,NW,315,0.0,2.0,64,0.00,,,0.00,WUHU21623XXSP,2013-10-11 15:12:00,
2013-10-11 11:17:00,73.8,59.4,30.10,SE,135,4.0,5.8,61,0.00,,,0.00,WUHU21623XXSP,2013-10-11 15:17:00,
2013-10-11 11:22:00,72.7,58.9,30.10,NNE,22,0.0,5.8,62,0.00,,,0.00,WUHU21623XXSP,2013-10-11 15:22:00,
2013-10-11 11:27:00,71.8,58.6,30.10,NNE,22,0.0,4.5,63,0.00,,,0.00,WUHU21623XXSP,2013-10-11 15:27:00,
2013-10-11 11:32:00,72.1,59.3,30.10,North,0,3.6,3.6,64,0.00,,,0.00,WUHU21623XXSP,2013-10-11 15:32:00,
2013-10-11 11:37:00,73.4,59.8,30.10,WNW,292,2.0,3.6,63,0.00,,,0.00,WUHU21623XXSP,2013-10-11 15:37:00,
2013-10-11 11:42:00,75.4,60.6,30.10,SE,135,0.0,2.0,60,0.00,,,0.00,WUHU21623XXSP,2013-10-11 15:42:00,
2013-10-11 11:47:00,75.9,60.6,30.10,East,90,0.9,0.9,59,0.00,,,0.00,WUHU21623XXSP,2013-10-11 15:47:00,
2013-10-11 11:52:00,76.5,60.6,30.10,ESE,112,1.1,3.8,58,0.00,,,0.00,WUHU21623XXSP,2013-10-11 15:52:00,
2013-10-11 11:57:00,75.9,59.6,30.09,WSW,247,0.0,3.8,57,0.00,,,0.00,WUHU21623XXSP,2013-10-11 15:57:00,
2013-10-11 12:02:00,75.0,58.7,30.09,SE,135,0.0,1.8,57,0.00,,,0.00,WUHU21623XXSP,2013-10-11 16:02:00,
2013-10-11 12:07:00,74.1,58.4,30.09,ENE,67,2.2,2.2,58,0.00,,,0.00,WUHU21623XXSP,2013-10-11 16:07:00,
2013-10-11 12:12:00,72.3,57.7,30.09,SSE,157,2.0,2.2,60,0.00,,,0.00,WUHU21623XXSP,2013-10-11 16:12:00,
2013-10-11 12:17:00,71.8,57.6,30.10,WSW,247,0.0,2.0,61,0.00,,,0.00,WUHU21623XXSP,2013-10-11 16:17:00,
2013-10-11 12:22:00,71.2,57.1,30.09,ENE,67,1.3,2.9,61,0.00,,,0.00,WUHU21623XXSP,2013-10-11 16:22:00,
2013-10-11 12:27:00,70.3,56.9,30.10,NNE,22,0.0,4.0,63,0.00,,,0.00,WUHU21623XXSP,2013-10-11 16:27:00,
2013-10-11 12:32:00,70.0,56.8,30.09,SE,135,0.0,4.0,63,0.00,,,0.00,WUHU21623XXSP,2013-10-11 16:32:00,
2013-10-11 12:37:00,69.6,56.6,30.09,North,0,0.0,0.0,63,0.00,,,0.00,WUHU21623XXSP,2013-10-11 16:37:00,
2013-10-11 12:42:00,68.9,56.2,30.10,SW,225,2.9,2.9,64,0.00,,,0.00,WUHU21623XXSP,2013-10-11 16:42:00,
2013-10-11 12:47:00,68.7,56.0,30.09,West,270,2.0,3.8,64,0.00,,,0.00,WUHU21623XXSP,2013-10-11 16:47:00,
2013-10-11 12:52:00,68.5,55.8,30.09,East,90,1.1,3.8,64,0.00,,,0.00,WUHU21623XXSP,2013-10-11 16:52:00,
2013-10-11 12:57:00,68.4,56.1,30.09,North,0,2.9,2.9,65,0.00,,,0.00,WUHU21623XXSP,2013-10-11 16:57:00,
2013-10-11 13:02:00,68.2,55.5,30.09,South,180,1.3,2.9,64,0.00,,,0.00,WUHU21623XXSP,2013-10-11 17:02:00,
2013-10-11 13:07:00,67.8,55.6,30.09,WSW,247,0.0,2.5,65,0.00,,,0.00,WUHU21623XXSP,2013-10-11 17:07:00,
2013-10-11 13:12:00,67.6,55.4,30.09,WSW,247,0.7,2.5,65,0.00,,,0.00,WUHU21623XXSP,2013-10-11 17:12:00,
2013-10-11 13:17:00,67.1,54.9,30.09,SSE,157,0.0,0.9,65,0.00,,,0.00,WUHU21623XXSP,2013-10-11 17:17:00,
2013-10-11 13:22:00,66.9,55.1,30.09,NNW,337,0.0,0.0,66,0.00,,,0.00,WUHU21623XXSP,2013-10-11 17:22:00,
2013-10-11 13:27:00,66.7,55.4,30.09,WNW,292,0.0,0.0,67,0.00,,,0.00,WUHU21623XXSP,2013-10-11 17:27:00,
2013-10-11 13:32:00,66.7,55.4,30.08,East,90,0.0,6.9,67,0.00,,,0.00,WUHU21623XXSP,2013-10-11 17:32:00,
2013-10-11 13:37:00,66.7,55.4,30.08,ESE,112,1.3,6.9,67,0.00,,,0.00,WUHU21623XXSP,2013-10-11 17:37:00,
2013-10-11 13:42:00,66.9,55.6,30.08,ESE,112,0.0,2.0,67,0.00,,,0.00,WUHU21623XXSP,2013-10-11 17:42:00,
2013-10-11 13:47:00,67.1,55.7,30.08,SE,135,0.0,2.0,67,0.00,,,0.00,WUHU21623XXSP,2013-10-11 17:47:00,
2013-10-11 13:52:00,67.3,55.9,30.08,ESE,112,0.0,0.0,67,0.00,,,0.00,WUHU21623XXSP,2013-10-11 17:52:00,
2013-10-11 13:57:00,67.5,55.7,30.08,SSW,202,1.1,2.5,66,0.00,,,0.00,WUHU21623XXSP,2013-10-11 17:57:00,
2013-10-11 14:02:00,67.3,55.5,30.08,ENE,67,2.5,2.5,66,0.00,,,0.00,WUHU21623XXSP,2013-10-11 18:02:00,
2013-10-11 14:07:00,67.1,54.9,30.08,NNE,22,0.0,2.5,65,0.00,,,0.00,WUHU21623XXSP,2013-10-11 18:07:00,
2013-10-11 14:12:00,66.9,54.3,30.07,SSW,202,1.6,1.6,64,0.00,,,0.00,WUHU21623XXSP,2013-10-11 18:12:00,
2013-10-11 14:17:00,66.7,54.1,30.07,SSE,157,0.0,1.6,64,0.00,,,0.00,WUHU21623XXSP,2013-10-11 18:17:00,
2013-10-11 14:22:00,66.4,53.8,30.08,SE,135,0.0,2.7,64,0.00,,,0.00,WUHU21623XXSP,2013-10-11 18:22:00,
2013-10-11 14:27:00,66.0,53.9,30.07,North,0,0.0,2.7,65,0.00,,,0.00,WUHU21623XXSP,2013-10-11 18:27:00,
2013-10-11 14:32:00,66.0,53.9,30.07,WNW,292,1.8,1.8,65,0.00,,,0.00,WUHU21623XXSP,2013-10-11 18:32:00,
2013-10-11 14:37:00,66.0,53.9,30.07,NNE,22,0.0,1.8,65,0.00,,,0.00,WUHU21623XXSP,2013-10-11 18:37:00,
2013-10-11 14:42:00,66.0,54.3,30.08,North,0,1.6,1.6,66,0.00,,,0.00,WUHU21623XXSP,2013-10-11 18:42:00,
2013-10-11 14:47:00,66.0,54.3,30.08,North,0,2.0,2.0,66,0.00,,,0.00,WUHU21623XXSP,2013-10-11 18:47:00,
2013-10-11 14:52:00,66.0,54.3,30.08,East,90,0.0,2.0,66,0.00,,,0.00,WUHU21623XXSP,2013-10-11 18:52:00,
2013-10-11 14:57:00,65.8,54.1,30.07,East,90,2.2,2.2,66,0.00,,,0.00,WUHU21623XXSP,2013-10-11 18:57:00,
2013-10-11 15:02:00,65.5,53.8,30.07,ESE,112,0.0,2.2,66,0.00,,,0.00,WUHU21623XXSP,2013-10-11 19:02:00,
2013-10-11 15:07:00,65.3,53.6,30.07,SSE,157,1.1,1.1,66,0.00,,,0.00,WUHU21623XXSP,2013-10-11 19:07:00,
2013-10-11 15:12:00,65.3,53.6,30.07,SE,135,0.0,1.1,66,0.00,,,0.00,WUHU21623XXSP,2013-10-11 19:12:00,
2013-10-11 15:17:00,65.1,53.4,30.07,SE,135,2.5,2.5,66,0.00,,,0.00,WUHU21623XXSP,2013-10-11 19:17:00,
2013-10-11 15:22:00,64.9,53.3,30.07,SSW,202,2.2,2.7,66,0.00,,,0.00,WUHU21623XXSP,2013-10-11 19:22:00,
2013-10-11 15:27:00,64.9,53.7,30.07,North,0,0.0,2.7,67,0.00,,,0.00,WUHU21623XXSP,2013-10-11 19:27:00,
2013-10-11 15:32:00,64.8,53.5,30.07,ESE,112,0.0,0.0,67,0.00,,,0.00,WUHU21623XXSP,2013-10-11 19:32:00,
2013-10-11 15:37:00,64.8,54.0,30.06,North,0,0.0,0.0,68,0.00,,,0.00,WUHU21623XXSP,2013-10-11 19:37:00,
2013-10-11 15:42:00,64.9,54.1,30.06,SE,135,0.0,0.0,68,0.00,,,0.00,WUHU21623XXSP,2013-10-11 19:42:00,
2013-10-11 15:47:00,64.9,54.1,30.07,NNE,22,0.0,0.0,68,0.00,,,0.00,WUHU21623XXSP,2013-10-11 19:47:00,
2013-10-11 15:52:00,64.9,54.1,30.07,ESE,112,0.0,0.0,68,0.00,,,0.00,WUHU21623XXSP,2013-10-11 19:52:00,
2013-10-11 15:57:00,64.8,53.5,30.07,North,0,0.0,0.0,67,0.00,,,0.00,WUHU21623XXSP,2013-10-11 19:57:00,
2013-10-11 16:02:00,64.6,53.4,30.07,NNW,337,0.0,0.0,67,0.00,,,0.00,WUHU21623XXSP,2013-10-11 20:02:00,
2013-10-11 16:07:00,64.6,53.8,30.07,SW,225,0.0,0.0,68,0.00,,,0.00,WUHU21623XXSP,2013-10-11 20:07:00,
2013-10-11 16:12:00,64.2,53.5,30.07,NNE,22,0.0,0.0,68,0.00,,,0.00,WUHU21623XXSP,2013-10-11 20:12:00,
2013-10-11 16:17:00,64.2,53.5,30.07,ESE,112,0.0,0.0,68,0.00,,,0.00,WUHU21623XXSP,2013-10-11 20:17:00,
2013-10-11 16:22:00,63.7,52.9,30.07,NE,45,1.6,1.8,68,0.00,,,0.00,WUHU21623XXSP,2013-10-11 20:22:00,
2013-10-11 16:27:00,63.7,53.3,30.07,ESE,112,0.0,1.8,69,0.00,,,0.00,WUHU21623XXSP,2013-10-11 20:27:00,
2013-10-11 16:32:00,63.3,53.0,30.07,ENE,67,0.0,0.0,69,0.00,,,0.00,WUHU21623XXSP,2013-10-11 20:32:00,
2013-10-11 16:37:00,63.1,52.8,30.06,SE,135,0.0,0.0,69,0.00,,,0.00,WUHU21623XXSP,2013-10-11 20:37:00,
2013-10-11 16:42:00,62.8,52.9,30.06,East,90,0.0,0.0,70,0.00,,,0.00,WUHU21623XXSP,2013-10-11 20:42:00,
2013-10-11 16:47:00,62.4,52.5,30.07,SSE,157,0.0,0.0,70,0.00,,,0.00,WUHU21623XXSP,2013-10-11 20:47:00,
2013-10-11 16:52:00,62.2,52.4,30.07,NNE,22,0.0,0.0,70,0.00,,,0.00,WUHU21623XXSP,2013-10-11 20:52:00,
2013-10-11 16:57:00,61.9,52.4,30.07,South,180,1.8,1.8,71,0.00,,,0.00,WUHU21623XXSP,2013-10-11 20:57:00,
2013-10-11 17:02:00,61.5,52.1,30.07,ESE,112,0.0,1.8,71,0.00,,,0.00,WUHU21623XXSP,2013-10-11 21:02:00,
2013-10-11 17:07:00,61.2,51.8,30.07,North,0,0.0,0.0,71,0.00,,,0.00,WUHU21623XXSP,2013-10-11 21:07:00,
2013-10-11 17:12:00,61.0,52.0,30.07,NNE,22,0.0,0.0,72,0.00,,,0.00,WUHU21623XXSP,2013-10-11 21:12:00,
2013-10-11 17:17:00,60.6,51.6,30.07,East,90,0.0,0.0,72,0.00,,,0.00,WUHU21623XXSP,2013-10-11 21:17:00,
2013-10-11 17:22:00,60.4,51.4,30.07,East,90,0.0,0.0,72,0.00,,,0.00,WUHU21623XXSP,2013-10-11 21:22:00,
2013-10-11 17:27:00,60.3,51.6,30.07,ESE,112,0.0,0.0,73,0.00,,,0.00,WUHU21623XXSP,2013-10-11 21:27:00,
2013-10-11 17:32:00,60.1,51.4,30.07,ESE,112,0.0,0.0,73,0.00,,,0.00,WUHU21623XXSP,2013-10-11 21:32:00,
2013-10-11 17:37:00,59.7,51.1,30.07,NNE,22,0.0,0.0,73,0.00,,,0.00,WUHU21623XXSP,2013-10-11 21:37:00,
2013-10-11 17:42:00,59.5,51.3,30.08,NNE,22,0.0,0.0,74,0.00,,,0.00,WUHU21623XXSP,2013-10-11 21:42:00,
2013-10-11 17:47:00,59.4,51.1,30.08,SSE,157,0.0,0.0,74,0.00,,,0.00,WUHU21623XXSP,2013-10-11 21:47:00,
2013-10-11 17:52:00,59.0,51.1,30.08,West,270,0.0,0.0,75,0.00,,,0.00,WUHU21623XXSP,2013-10-11 21:52:00,
2013-10-11 17:57:00,58.8,50.9,30.08,ESE,112,0.0,0.0,75,0.00,,,0.00,WUHU21623XXSP,2013-10-11 21:57:00,
2013-10-11 18:02:00,58.5,50.5,30.08,East,90,0.0,0.0,75,0.00,,,0.00,WUHU21623XXSP,2013-10-11 22:02:00,
2013-10-11 18:07:00,58.1,50.2,30.08,East,90,0.0,0.0,75,0.00,,,0.00,WUHU21623XXSP,2013-10-11 22:07:00,
2013-10-11 18:12:00,57.9,50.0,30.08,East,90,0.0,0.0,75,0.00,,,0.00,WUHU21623XXSP,2013-10-11 22:12:00,
2013-10-11 18:17:00,57.6,50.0,30.08,East,90,0.0,0.0,76,0.00,,,0.00,WUHU21623XXSP,2013-10-11 22:17:00,
2013-10-11 18:22:00,57.4,49.8,30.08,East,90,0.0,0.0,76,0.00,,,0.00,WUHU21623XXSP,2013-10-11 22:22:00,
2013-10-11 18:27:00,57.0,49.5,30.08,East,90,0.0,0.0,76,0.00,,,0.00,WUHU21623XXSP,2013-10-11 22:27:00,
2013-10-11 18:32:00,56.8,49.6,30.08,East,90,0.0,0.0,77,0.00,,,0.00,WUHU21623XXSP,2013-10-11 22:32:00,
2013-10-11 18:37:00,56.5,49.6,30.08,West,270,0.0,0.0,77,0.00,,,0.00,WUHU21623XXSP,2013-10-11 22:37:00,
2013-10-11 18:42:00,56.5,49.6,30.08,South,180,0.0,0.0,78,0.00,,,0.00,WUHU21623XXSP,2013-10-11 22:42:00,
2013-10-11 18:47:00,56.3,49.5,30.08,WSW,247,0.0,0.0,78,0.00,,,0.00,WUHU21623XXSP,2013-10-11 22:47:00,
2013-10-11 18:52:00,56.1,49.3,30.09,West,270,0.0,0.0,78,0.00,,,0.00,WUHU21623XXSP,2013-10-11 22:52:00,
2013-10-11 18:57:00,55.9,49.1,30.09,West,270,0.0,0.0,78,0.00,,,0.00,WUHU21623XXSP,2013-10-11 22:57:00,
2013-10-11 19:02:00,55.8,48.9,30.09,SW,225,0.0,0.0,78,0.00,,,0.00,WUHU21623XXSP,2013-10-11 23:02:00,
2013-10-11 19:07:00,55.6,49.1,30.09,SW,225,0.0,0.0,79,0.00,,,0.00,WUHU21623XXSP,2013-10-11 23:07:00,
2013-10-11 19:12:00,55.4,48.9,30.08,North,0,0.0,0.0,79,0.00,,,0.00,WUHU21623XXSP,2013-10-11 23:12:00,
2013-10-11 19:17:00,55.2,48.8,30.09,West,270,0.0,0.0,79,0.00,,,0.00,WUHU21623XXSP,2013-10-11 23:17:00,
2013-10-11 19:22:00,55.2,48.8,30.09,South,180,0.0,0.0,79,0.00,,,0.00,WUHU21623XXSP,2013-10-11 23:22:00,
2013-10-11 19:27:00,55.0,48.8,30.09,South,180,0.0,0.0,80,0.00,,,0.00,WUHU21623XXSP,2013-10-11 23:27:00,
2013-10-11 19:32:00,54.9,48.8,30.09,South,180,0.0,0.0,80,0.00,,,0.00,WUHU21623XXSP,2013-10-11 23:32:00,
2013-10-11 19:37:00,54.7,48.6,30.09,NW,315,0.0,0.0,80,0.00,,,0.00,WUHU21623XXSP,2013-10-11 23:37:00,
2013-10-11 19:42:00,54.5,48.5,30.09,NW,315,0.0,0.0,80,0.00,,,0.00,WUHU21623XXSP,2013-10-11 23:42:00,
2013-10-11 19:47:00,54.3,48.6,30.09,NW,315,0.0,0.0,81,0.00,,,0.00,WUHU21623XXSP,2013-10-11 23:47:00,
2013-10-11 19:52:00,54.3,48.6,30.09,NNW,337,0.0,0.0,81,0.00,,,0.00,WUHU21623XXSP,2013-10-11 23:52:00,
2013-10-11 19:57:00,54.1,48.6,30.09,NNW,337,0.0,0.0,81,0.00,,,0.00,WUHU21623XXSP,2013-10-11 23:57:00,
2013-10-11 20:02:00,54.1,48.5,30.09,NNW,337,0.0,0.0,81,0.00,,,0.00,WUHU21623XXSP,2013-10-12 00:02:00,
2013-10-11 20:07:00,53.8,48.1,30.09,NNW,337,0.0,0.0,81,0.00,,,0.00,WUHU21623XXSP,2013-10-12 00:07:00,
2013-10-11 20:12:00,53.8,48.1,30.10,NNW,337,0.0,0.0,81,0.00,,,0.00,WUHU21623XXSP,2013-10-12 00:12:00,
2013-10-11 20:17:00,53.6,48.0,30.10,NNW,337,0.0,0.0,81,0.00,,,0.00,WUHU21623XXSP,2013-10-12 00:17:00,
2013-10-11 20:22:00,53.4,48.1,30.10,NNW,337,0.0,0.0,82,0.00,,,0.00,WUHU21623XXSP,2013-10-12 00:22:00,
2013-10-11 20:27:00,53.4,48.1,30.10,NNW,337,0.0,0.0,82,0.00,,,0.00,WUHU21623XXSP,2013-10-12 00:27:00,
2013-10-11 20:32:00,53.2,47.9,30.10,NNW,337,0.0,0.0,82,0.00,,,0.00,WUHU21623XXSP,2013-10-12 00:32:00,
2013-10-11 20:37:00,53.2,47.9,30.10,NNW,337,0.0,0.0,82,0.00,,,0.00,WUHU21623XXSP,2013-10-12 00:37:00,
2013-10-11 20:42:00,52.9,47.9,30.10,NNW,337,0.0,0.0,82,0.00,,,0.00,WUHU21623XXSP,2013-10-12 00:42:00,
2013-10-11 20:47:00,52.9,47.6,30.10,NNW,337,0.0,0.0,82,0.00,,,0.00,WUHU21623XXSP,2013-10-12 00:47:00,
2013-10-11 20:52:00,52.5,47.2,30.10,NNW,337,0.0,0.0,82,0.00,,,0.00,WUHU21623XXSP,2013-10-12 00:52:00,
2013-10-11 20:57:00,52.3,47.0,30.10,NNW,337,0.0,0.0,82,0.00,,,0.00,WUHU21623XXSP,2013-10-12 00:57:00,
2013-10-11 21:02:00,52.3,47.0,30.09,NNW,337,0.0,0.0,82,0.00,,,0.00,WUHU21623XXSP,2013-10-12 01:02:00,
2013-10-11 21:07:00,52.0,47.0,30.09,NNW,337,0.0,0.0,83,0.00,,,0.00,WUHU21623XXSP,2013-10-12 01:07:00,
2013-10-11 21:12:00,52.0,47.0,30.09,NNW,337,0.0,0.0,83,0.00,,,0.00,WUHU21623XXSP,2013-10-12 01:12:00,
2013-10-11 21:17:00,51.6,46.6,30.09,NNW,337,0.0,0.0,83,0.00,,,0.00,WUHU21623XXSP,2013-10-12 01:17:00,
2013-10-11 21:22:00,51.4,46.6,30.09,NNW,337,0.0,0.0,83,0.00,,,0.00,WUHU21623XXSP,2013-10-12 01:22:00,
2013-10-11 21:27:00,51.4,46.4,30.09,NNW,337,0.0,0.0,83,0.00,,,0.00,WUHU21623XXSP,2013-10-12 01:27:00,
2013-10-11 21:32:00,51.3,46.2,30.09,NNW,337,0.0,0.0,83,0.00,,,0.00,WUHU21623XXSP,2013-10-12 01:32:00,
2013-10-11 21:37:00,51.1,46.1,30.09,NNW,337,0.0,0.0,83,0.00,,,0.00,WUHU21623XXSP,2013-10-12 01:37:00,
2013-10-11 21:42:00,51.1,46.1,30.10,NNW,337,0.0,0.0,83,0.00,,,0.00,WUHU21623XXSP,2013-10-12 01:42:00,
2013-10-11 21:47:00,50.9,45.9,30.10,NNW,337,0.0,0.0,83,0.00,,,0.00,WUHU21623XXSP,2013-10-12 01:47:00,
2013-10-11 21:52:00,50.7,45.7,30.10,NNW,337,0.0,0.0,83,0.00,,,0.00,WUHU21623XXSP,2013-10-12 01:52:00,
2013-10-11 21:57:00,50.5,45.7,30.10,NNW,337,0.0,0.0,83,0.00,,,0.00,WUHU21623XXSP,2013-10-12 01:57:00,
2013-10-11 22:02:00,50.4,45.5,30.10,NNW,337,0.0,0.0,83,0.00,,,0.00,WUHU21623XXSP,2013-10-12 02:02:00,
2013-10-11 22:07:00,50.2,45.2,30.10,NNW,337,0.0,0.0,83,0.00,,,0.00,WUHU21623XXSP,2013-10-12 02:07:00,
2013-10-11 22:12:00,50.0,45.2,30.10,NNW,337,0.0,0.0,83,0.00,,,0.00,WUHU21623XXSP,2013-10-12 02:12:00,
2013-10-11 22:17:00,49.8,44.8,30.10,NNW,337,0.0,0.0,83,0.00,,,0.00,WUHU21623XXSP,2013-10-12 02:17:00,
2013-10-11 22:22:00,49.8,45.1,30.11,NNW,337,0.0,0.0,84,0.00,,,0.00,WUHU21623XXSP,2013-10-12 02:22:00,
2013-10-11 22:27:00,49.8,45.1,30.11,NNW,337,0.0,0.0,84,0.00,,,0.00,WUHU21623XXSP,2013-10-12 02:27:00,
2013-10-11 22:32:00,49.8,45.1,30.11,NNW,337,0.0,0.0,84,0.00,,,0.00,WUHU21623XXSP,2013-10-12 02:32:00,
2013-10-11 22:37:00,49.8,45.1,30.11,NNW,337,0.0,0.0,84,0.00,,,0.00,WUHU21623XXSP,2013-10-12 02:37:00,
2013-10-11 22:42:00,49.8,45.1,30.11,NNW,337,0.0,0.0,84,0.00,,,0.00,WUHU21623XXSP,2013-10-12 02:42:00,
2013-10-11 22:47:00,49.8,45.1,30.11,NNW,337,0.0,0.0,84,0.00,,,0.00,WUHU21623XXSP,2013-10-12 02:47:00,
2013-10-11 22:52:00,49.8,45.4,30.10,NNW,337,0.0,0.0,85,0.00,,,0.00,WUHU21623XXSP,2013-10-12 02:52:00,
2013-10-11 22:57:00,49.8,45.4,30.10,NNW,337,0.0,0.0,85,0.00,,,0.00,WUHU21623XXSP,2013-10-12 02:57:00,
2013-10-11 23:02:00,50.0,45.6,30.10,NNW,337,0.0,0.0,85,0.00,,,0.00,WUHU21623XXSP,2013-10-12 03:02:00,
2013-10-11 23:07:00,50.0,45.6,30.11,North,0,0.0,0.0,85,0.00,,,0.00,WUHU21623XXSP,2013-10-12 03:07:00,
2013-10-11 23:12:00,50.0,45.6,30.11,North,0,0.0,0.0,85,0.00,,,0.00,WUHU21623XXSP,2013-10-12 03:12:00,
2013-10-11 23:17:00,50.0,45.6,30.10,North,0,0.0,0.0,85,0.00,,,0.00,WUHU21623XXSP,2013-10-12 03:17:00,
2013-10-11 23:22:00,50.2,45.8,30.10,NNW,337,0.0,0.0,85,0.00,,,0.00,WUHU21623XXSP,2013-10-12 03:22:00,
2013-10-11 23:27:00,50.2,45.8,30.10,NNW,337,0.0,0.0,85,0.00,,,0.00,WUHU21623XXSP,2013-10-12 03:27:00,
2013-10-11 23:32:00,50.2,45.8,30.10,NNW,337,0.0,0.0,85,0.00,,,0.00,WUHU21623XXSP,2013-10-12 03:32:00,
2013-10-11 23:37:00,50.4,46.0,30.10,NNW,337,0.0,0.0,85,0.00,,,0.00,WUHU21623XXSP,2013-10-12 03:37:00,
2013-10-11 23:42:00,50.4,46.0,30.10,NNW,337,0.0,0.0,85,0.00,,,0.00,WUHU21623XXSP,2013-10-12 03:42:00,
2013-10-11 23:47:00,50.4,46.0,30.10,NNW,337,0.0,0.0,85,0.00,,,0.00,WUHU21623XXSP,2013-10-12 03:47:00,
2013-10-11 23:52:00,50.5,46.1,30.10,North,0,0.0,0.0,85,0.00,,,0.00,WUHU21623XXSP,2013-10-12 03:52:00,
2013-10-11 23:57:00,50.5,46.1,30.10,NNW,337,0.0,0.0,85,0.00,,,0.00,WUHU21623XXSP,2013-10-12 03:57:00,